TimeEST,TemperatureF,Dew PointF,Humidity,Sea Level PressureIn,VisibilityMPH,Wind Direction,Wind SpeedMPH,Gust SpeedMPH,PrecipitationIn,Events,Conditions,WindDirDegrees,DateUTC
12:54 AM,21.0,17.1,85,30.64,10.0,Calm,Calm,-,N/A,,Clear,0,2013-11-21 05:54:00
1:54 AM,21.0,16.0,81,30.64,10.0,Calm,Calm,-,N/A,,Clear,0,2013-11-21 06:54:00
2:54 AM,19.9,16.0,85,30.62,10.0,Calm,Calm,-,N/A,,Clear,0,2013-11-21 07:54:00
3:54 AM,19.9,16.0,85,30.61,10.0,Calm,Calm,-,N/A,,Clear,0,2013-11-21 08:54:00
4:54 AM,19.0,15.1,85,30.59,10.0,SSE,3.5,-,N/A,,Clear,160,2013-11-21 09:54:00
5:54 AM,19.0,15.1,85,30.58,10.0,SE,3.5,-,N/A,,Clear,140,2013-11-21 10:54:00
6:54 AM,23.0,15.1,72,30.58,10.0,SSE,5.8,-,N/A,,Partly Cloudy,160,2013-11-21 11:54:00
7:54 AM,28.0,16.0,61,30.58,10.0,South,9.2,-,N/A,,Clear,170,2013-11-21 12:54:00
8:54 AM,32.0,16.0,52,30.58,10.0,South,9.2,20.7,N/A,,Clear,170,2013-11-21 13:54:00
9:54 AM,37.0,15.1,41,30.57,10.0,South,8.1,16.1,N/A,,Clear,190,2013-11-21 14:54:00
10:54 AM,37.9,12.9,36,30.54,10.0,South,13.8,25.3,N/A,,Partly Cloudy,190,2013-11-21 15:54:00
11:54 AM,39.9,10.9,31,30.51,10.0,South,17.3,26.5,N/A,,Partly Cloudy,190,2013-11-21 16:54:00
12:54 PM,41.0,9.0,27,30.48,10.0,South,12.7,25.3,N/A,,Mostly Cloudy,180,2013-11-21 17:54:00
1:54 PM,42.1,9.0,26,30.44,10.0,South,16.1,21.9,N/A,,Scattered Clouds,190,2013-11-21 18:54:00
2:54 PM,42.1,10.0,27,30.43,10.0,South,15.0,21.9,N/A,,Mostly Cloudy,190,2013-11-21 19:54:00
3:54 PM,41.0,10.9,29,30.43,10.0,South,13.8,-,N/A,,Mostly Cloudy,190,2013-11-21 20:54:00
4:54 PM,39.9,17.1,40,30.43,10.0,South,11.5,-,N/A,,Scattered Clouds,190,2013-11-21 21:54:00
5:54 PM,39.0,19.9,46,30.43,10.0,South,9.2,-,N/A,,Clear,190,2013-11-21 22:54:00
6:54 PM,37.0,19.9,50,30.42,10.0,South,8.1,-,N/A,,Clear,190,2013-11-21 23:54:00
7:54 PM,37.0,21.0,52,30.40,10.0,South,8.1,-,N/A,,Overcast,190,2013-11-22 00:54:00
8:54 PM,37.9,21.9,53,30.40,10.0,South,4.6,-,N/A,,Mostly Cloudy,190,2013-11-22 01:54:00
9:54 PM,37.0,23.0,57,30.39,10.0,South,5.8,-,N/A,,Scattered Clouds,190,2013-11-22 02:54:00
10:54 PM,37.9,24.1,57,30.37,10.0,South,3.5,-,N/A,,Mostly Cloudy,180,2013-11-22 03:54:00
11:54 PM,39.0,26.1,60,30.34,10.0,SSW,3.5,-,N/A,,Overcast,200,2013-11-22 04:54:00